CW5542 Weather Reports


time (UTC)temp
C
wind
direction
speed
KPH
gust
KPH
rain 1hr
cm
rain 24hr
cm
rain mn
cm
humidity
%
barometer
mb
20260506153958 10 303 0.0 0.0 0.00 0.00 0.00 43 1012.1
20260506152957 9 297 0.0 0.0 0.00 0.03 0.00 44 1012.0
20260506151957 9 309 0.0 3.2 0.00 0.05 0.00 47 1012.0
20260506150956 9 335 0.0 12.9 0.00 0.05 0.00 45 1011.8
20260506145954 9 328 9.7 25.7 0.00 0.05 0.00 45 1011.8
20260506144953 9 315 0.0 25.7 0.00 0.05 0.00 46 1011.8
20260506143952 8 319 0.0 16.1 0.00 0.05 0.00 50 1011.6
20260506141951 8 311 0.0 19.3 0.00 0.05 0.00 48 1011.6
20260506140950 8 308 3.2 22.5 0.00 0.05 0.00 49 1011.3
20260506135949 8 330 0.0 0.0 0.00 0.05 0.00 52 1011.0
20260506133947 7 312 0.0 3.2 0.00 0.05 0.00 52 1010.9
20260506131946 7 308 0.0 0.0 0.00 0.05 0.00 58 1011.0
20260506130945 7 317 0.0 0.0 0.00 0.05 0.00 58 1011.1
20260506125944 7 310 0.0 0.0 0.00 0.05 0.00 59 1010.8
20260506122941 6 312 0.0 0.0 0.00 0.05 0.00 62 1010.4
20260506121941 6 31 0.0 0.0 0.00 0.05 0.00 63 1010.3
20260506115940 5 316 0.0 0.0 0.00 0.05 0.00 67 1010.0
20260506114939 5 308 0.0 0.0 0.00 0.05 0.00 67 1009.7
20260506114008 5 308 0.0 0.0 0.00 0.05 0.00 70 1009.6
20260506113007 5 139 0.0 0.0 0.00 0.05 0.00 71 1009.6
20260506111006 5 139 0.0 0.0 0.00 0.05 0.00 72 1009.3
20260506110006 5 139 0.0 0.0 0.00 0.05 0.00 70 1009.2
20260506105005 5 139 0.0 0.0 0.00 0.05 0.00 68 1009.1
20260506104005 5 139 0.0 0.0 0.00 0.05 0.00 67 1009.1
20260506103005 5 139 0.0 0.0 0.00 0.05 0.00 65 1008.8
20260506102004 6 139 0.0 0.0 0.00 0.05 0.00 64 1008.7
20260506101003 6 139 0.0 0.0 0.00 0.05 0.00 64 1008.8
20260506100002 6 139 0.0 0.0 0.00 0.05 0.00 62 1008.7
20260506095002 6 138 0.0 0.0 0.00 0.05 0.00 62 1008.9
20260506094001 6 138 0.0 0.0 0.00 0.05 0.00 62 1008.7
20260506093001 6 4 0.0 0.0 0.00 0.05 0.00 61 1008.6
20260506091002 7 0 0.0 0.0 0.00 0.05 0.00 60 1008.2
20260506090001 7 343 0.0 0.0 0.00 0.05 0.00 61 1008.1
20260506085000 7 343 0.0 0.0 0.00 0.05 0.00 60 1008.1
20260506084000 7 343 0.0 0.0 0.00 0.05 0.00 61 1008.2
20260506081957 7 304 0.0 0.0 0.00 0.05 0.00 60 1007.8
20260506072953 7 316 0.0 0.0 0.00 0.05 0.00 61 1008.2
20260506070951 7 316 0.0 0.0 0.00 0.05 0.00 61 1008.0
20260506061946 7 308 0.0 0.0 0.00 0.05 0.00 60 1008.1
20260506060945 7 306 0.0 0.0 0.00 0.05 0.00 59 1008.2
20260506051010 8 308 0.0 0.0 0.00 0.05 0.00 60 1008.1
20260506045008 8 308 0.0 0.0 0.00 0.05 0.00 60 1007.7
20260506044008 8 297 0.0 0.0 0.00 0.08 0.00 60 1008.0
20260506043007 8 292 0.0 0.0 0.00 0.08 0.00 61 1008.0
20260506040004 8 289 0.0 0.0 0.00 0.08 0.00 61 1007.8
20260506035003 8 289 0.0 0.0 0.00 0.08 0.08 61 1007.8
20260506034002 8 289 0.0 0.0 0.00 0.13 0.08 61 1007.7
20260506033001 8 289 0.0 0.0 0.00 0.25 0.08 60 1007.6
20260506030959 8 289 0.0 0.0 0.00 0.30 0.08 59 1007.6